Home   Weather   Istres   Past weeks

Flag for France Past Weather in Istres, Provence-Alpes-Côte d'Azur, France — Yesterday and Last 2 Weeks

Now
64 °F

Sunny.


Feels Like: 64 °F
Forecast: 51 / 67 °F
Wind: 16 mph from South

Location: Istres Airport

Current Time: Apr 24, 2017 at 1:38:57 pm

Latest Report: Apr 24, 2017 at 1:00 pm


Visibility: 10 mi

Pressure: 30.09 "Hg

Humidity: 64%

Dew Point: 52 °F

Location of IstresLocation

Past Weather in Istres — Graph

°F

Istres Temperature Yesterday

Maximum temperature yesterday: 73 °F (at 5:00 pm)
Minimum temperature yesterday: 46 °F (at 3:00 am)
Average temperature yesterday: 60 °F

High & Low Weather Summary for the Past Weeks

 TemperatureHumidityPressure
High79 °F (Apr 13, 4:30 pm)94% (Apr 10, 1:00 am)30.36 "Hg (Apr 10, 1:00 am)
Low39 °F (Apr 21, 6:30 am)13% (Apr 18, 5:00 pm)29.86 "Hg (Apr 13, 4:30 pm)
Average59 °F52%30.08 "Hg
* Reported Apr 9 12:00 pm — Apr 24 12:00 pm, Istres, Weather by CustomWeather, © 2017

Note: Actual official high and low records may vary slightly from our data, if they occured in-between our weather recording intervals... More about our weather records

Advertising

Istres Weather History for the Previous 24 Hours

Scroll right to see more
 ConditionsComfort  
Time TempWeatherWind HumidityBarometerVisibility
12:00 pm
Mon, Apr 24
63 °FPassing clouds.10 mph68%30.09 "HgN/A
11:30 am66 °FPassing clouds.8 mph60%30.09 "HgN/A
11:00 am64 °FPassing clouds.5 mph60%30.09 "HgN/A
10:30 am63 °FSunny.3 mph59%30.07 "Hg10 mi
9:30 am61 °FPassing clouds.5 mph68%30.09 "HgN/A
9:00 am59 °FSunny.3 mph72%30.09 "Hg10 mi
8:30 am55 °FSunny.3 mph82%30.07 "Hg10 mi
8:00 am54 °FSunny.5 mph82%30.07 "Hg10 mi
7:30 am50 °FSunny.6 mph88%30.07 "Hg10 mi
7:00 am48 °FSunny.6 mph87%30.07 "Hg10 mi
6:30 am46 °FClear.6 mph93%30.07 "Hg10 mi
5:30 am48 °FClear.5 mph94%30.07 "Hg10 mi
4:30 am48 °FClear.5 mph94%30.07 "Hg10 mi
4:00 am48 °FClear.3 mph94%30.04 "Hg10 mi
3:30 am48 °FClear.3 mph94%30.07 "Hg10 mi
3:00 am50 °FClear.3 mph94%30.07 "Hg10 mi
2:30 am50 °FClear.3 mph94%30.07 "Hg10 mi
2:00 am52 °FClear.3 mph88%30.07 "Hg10 mi
1:30 am52 °FClear.3 mph94%30.07 "Hg10 mi
1:00 am55 °FClear.5 mph88%30.07 "Hg10 mi
12:30 am54 °FClear.3 mph94%30.07 "Hg10 mi
12:00 am55 °FClear.5 mph82%30.07 "Hg10 mi
11:30 pm
Sun, Apr 23
55 °FClear.5 mph82%30.07 "Hg10 mi
10:30 pm55 °FClear.6 mph88%30.07 "Hg10 mi
10:00 pm55 °FClear.3 mph88%30.07 "Hg10 mi
9:30 pm57 °FClear.5 mph82%30.04 "Hg10 mi
9:00 pm57 °FClear.6 mph77%30.04 "Hg10 mi
8:30 pm61 °FSunny.7 mph59%30.01 "Hg10 mi
8:00 pm66 °FSunny.10 mph46%30.01 "Hg10 mi
7:30 pm68 °FSunny.12 mph38%29.98 "Hg10 mi
7:00 pm70 °FSunny.12 mph38%29.98 "Hg10 mi
6:30 pm73 °FSunny.13 mph20%29.98 "Hg10 mi
6:00 pm73 °FSunny.16 mph22%29.98 "Hg10 mi
5:30 pm73 °FSunny.16 mph23%29.98 "Hg10 mi
5:00 pm73 °FSunny.16 mph23%29.98 "Hg10 mi
4:30 pm72 °FPassing clouds.17 mph25%29.98 "HgN/A
4:00 pm72 °FSunny.18 mph27%29.98 "Hg10 mi
3:00 pm72 °FSunny.23 mph27%30.01 "Hg10 mi
2:30 pm72 °FSunny.24 mph29%30.01 "Hg10 mi
2:00 pm70 °FSunny.21 mph31%30.01 "Hg10 mi
1:30 pm70 °FSunny.23 mph31%30.01 "Hg10 mi
1:00 pm68 °FPassing clouds.20 mph33%30.01 "HgN/A
Weather by CustomWeather, © 2017

See weather overviewHow to use our weather pages